This demonstration page uses our WeatherBlox Daily Observations layout. Learn more.

Left ArrowRight Arrow

Hourly Observations for December 28, 2018

Temp ( °F °C ) Dew Point ( °F °C ) Humidity (%) Winds ( mph kmh ) Pressure ( in mb ) Visibility ( mi km ) Precip ( " mm )
12:53 am 00:53 Windy with Snow Likely 20 -6.7 14 -10 78 78 NNW 26 43 29.99 1016 5 8 0.00 0.03
1:11 am 01:11 Windy with Snow Likely 19 -7.2 13 -10.6 77 77 NNW 28 44 30.06 1018 2 3 0.00 0.03
1:23 am 01:23 Cloudy with Haze 19 -7 12 -11 73 73 NNW 24 39 30.06 1018 6 10 0.00 0.00
1:50 am 01:50 Windy with Snow Likely 19 -7 12 -11 73 73 NNW 32 52 30.09 1019 2 3 0.00 0.03
1:53 am 01:53 Windy with Snow Likely 19 -7.2 13 -10.6 77 77 NNW 29 46 30.02 1017 2 3 0.00 0.03
2:05 am 02:05 Windy with Snow Likely 19 -7.2 13 -10.6 77 77 NNW 29 46 30.09 1019 2 2 0.00 0.03
2:13 am 02:13 Windy with Snow Likely 19 -7 12 -11 73 73 NNW 23 37 30.09 1019 3 5 0.00 0.00
2:33 am 02:33 Windy with Snow Likely 19 -7 12 -11 73 73 NNW 32 52 30.12 1020 2 3 0.00 0.00
2:53 am 02:53 Windy with Snow Likely 18 -7.8 12 -11.1 77 77 NNW 26 43 30.05 1018 1 2 0.00 0.03
3:09 am 03:09 Windy with Snow Likely 18 -7.8 12 -11.1 77 77 NNW 23 37 30.12 1020 3 5 0.00 0.03
3:20 am 03:20 Windy with Snow Likely 18 -7.8 12 -11.1 77 77 NNW 25 41 30.12 1020 2 3 0.00 0.03
3:34 am 03:34 Cloudy with Snow 18 -8 12 -11 79 79 NNW 32 52 30.15 1021 1 1 0.00 0.00
3:53 am 03:53 Windy with Snow Likely 17 -8.3 12 -11.1 80 80 NNW 26 43 30.08 1019 1 1 0.00 0.03
4:16 am 04:16 Windy with Snow Likely 18 -8 12 -11 79 79 NNW 26 43 30.15 1021 1 2 0.00 0.00
4:26 am 04:26 Windy with Snow Likely 18 -8 10 -12 73 73 NNW 25 41 30.15 1021 1 1 0.00 0.00
4:46 am 04:46 Windy with Snow Likely 18 -8 10 -12 73 73 NNW 28 44 30.15 1021 1 2 0.00 0.00
4:53 am 04:53 Windy with Snow Likely 17 -8.3 12 -11.1 80 80 NNW 26 43 30.09 1019 1 1 0.00 0.03
5:53 am 05:53 Windy with Snow Likely 17 -8.3 12 -11.1 80 80 NNW 25 41 30.12 1020 1 2 0.00 0.03
6:42 am 06:42 Windy with Snow Likely 18 -8 10 -12 73 73 NNW 26 43 30.24 1024 2 3 0.00 0.00
6:53 am 06:53 Windy with Snow Likely 17 -8.3 12 -11.1 80 80 NNW 25 41 30.15 1021 2 3 0.00 0.03
7:16 am 07:16 Windy with Snow Likely 18 -8 12 -11 79 79 NNW 24 39 30.27 1025 1 2 0.00 0.00
7:53 am 07:53 Windy with Snow Likely 18 -7.8 12 -11.1 77 77 NNW 24 39 30.19 1022 2 3 0.00 0.03
8:06 am 08:06 Windy with Snow Likely 18 -8 12 -11 79 79 NNW 23 37 30.27 1025 2 2 0.00 0.00
8:15 am 08:15 Windy with Snow Likely 18 -7.8 12 -11.1 77 77 NNW 21 33 30.27 1025 2 2 0.00 0.03
8:53 am 08:53 Windy with Snow Likely 18 -7.8 13 -10.6 81 81 NNW 21 33 30.23 1024 1 2 0.00 0.03
9:25 am 09:25 Windy with Snow Likely 18 -7.8 13 -10.6 81 81 NNW 26 43 30.30 1026 1 1 0.00 0.03
9:34 am 09:34 Windy with Snow Likely 18 -8 12 -11 79 79 NNW 25 41 30.30 1026 1 2 0.00 0.00
9:53 am 09:53 Windy with Snow Likely 19 -7.2 13 -10.6 77 77 NNW 26 43 30.24 1024 1 2 0.00 0.03
9:55 am 09:55 Windy with Snow Likely 19 -7 12 -11 73 73 NNW 30 48 30.27 1025 1 1 0.00 0.00
10:21 am 10:21 Cloudy with Snow 19 -7.2 13 -10.6 77 77 NNW 25 41 30.27 1025 1 1 0.00 0.03
10:32 am 10:32 Windy with Snow Likely 19 -7 12 -11 73 73 NNW 25 41 30.27 1025 1 2 0.00 0.00
10:39 am 10:39 Windy with Snow Likely 19 -7.2 13 -10.6 77 77 NNW 25 41 30.27 1025 1 2 0.00 0.03
10:53 am 10:53 Windy with Snow Likely 20 -6.7 13 -10.6 74 74 NNW 23 37 30.26 1025 2 3 0.00 0.03
11:00 am 11:00 Windy with Snow Likely 19 -7 12 -11 73 73 NNW 25 41 30.30 1026 3 4 0.00 0.00
11:11 am 11:11 Windy with Snow Likely 19 -7.2 12 -11.1 74 74 NNW 25 41 30.33 1027 1 2 0.00 0.03
11:24 am 11:24 Cloudy with Blowing Snow 19 -7 12 -11 73 73 NNW 23 37 30.30 1026 3 5 0.00 0.00
11:39 am 11:39 Windy with Snow Likely 20 -6.7 12 -11.1 71 71 NNW 26 43 30.30 1026 3 5 0.00 0.03
11:47 am 11:47 Cloudy with Blowing Snow 19 -7 10 -12 68 68 NNW 26 43 30.30 1026 2 3 0.00 0.03
11:53 am 11:53 Mostly Cloudy with Blowing Snow 19 -7.2 11 -11.7 71 71 NNW 28 44 30.26 1025 2 3 0.00 0.03
12:09 pm 12:09 Mostly Cloudy with Blowing Snow 19 -7 12 -11 73 73 NNW 22 35 30.30 1026 3 5 0.00 0.00
12:23 pm 12:23 Mostly Cloudy with Blowing Snow 19 -7 10 -12 68 68 NNW 28 44 30.30 1026 2 3 0.00 0.00
12:43 pm 12:43 Partly Cloudy with Blowing Snow 20 -6.7 11 -11.7 68 68 NNW 25 41 30.30 1026 3 5 0.00 0.03
12:53 pm 12:53 Sunny with Blowing Snow 20 -6.7 11 -11.7 68 68 NNW 23 37 30.27 1025 3 5 0.00 0.03
1:53 pm 13:53 Hazy 20 -6.7 10 -12.2 65 65 NNW 28 44 30.28 1026 5 8 0.00 0.03
2:53 pm 14:53 Sunny 20 -6.7 10 -12.2 65 65 NNW 21 33 30.30 1026 10 16 0.00 0.03
3:53 pm 15:53 Sunny 19 -7.2 8 -13.3 62 62 NNW 17 28 30.32 1027 10 16 0.00 0.00
4:53 pm 16:53 Sunny 18 -7.8 7 -13.9 62 62 NNW 21 33 30.35 1028 10 16 0.00 0.00
5:53 pm 17:53 Clear 16 -8.9 7 -13.9 67 67 NNW 14 22 30.35 1028 10 16 0.00 0.00
6:53 pm 18:53 Clear 15 -9.4 5 -15 64 64 NNW 14 22 30.39 1029 10 16 0.00 0.00
7:53 pm 19:53 Clear 14 -10 5 -15 67 67 NNW 9 15 30.40 1030 10 16 0.00 0.00
8:53 pm 20:53 Clear 13 -10.6 4 -15.6 67 67 NNW 10 17 30.40 1030 10 16 0.00 0.00
9:53 pm 21:53 Clear 11 -11.7 4 -15.6 73 73 NW 8 13 30.42 1030 10 16 0.00 0.00
10:53 pm 22:53 Clear 11 -11.7 4 -15.6 73 73 NNW 8 13 30.41 1030 10 16 0.00 0.00
11:53 pm 23:53 Clear 10 -12.2 3 -16.1 73 73 NW 6 9 30.43 1031 10 16 0.00 0.00

Powered by AerisWeather